Theta_e
335 332 330 325 310 308 300 301 307 306 308 313 317 315 314 317 316 312 334 339 342 341 345 346 347 347 346 345 346 345 343 341 340 341 343 341 339 339 339 340 341 336 335 336 335 335 334 334 333
331 331 327 319 305 301 299 304 305 308 315 317 315 315 313 313 326 329 331 339 342 343 344 344 345 347 346 345 345 345 345 344 340 338 339 338 339 337 338 339 339 335 337 334 334 334 334 334 334
330 330 317 310 305 300 301 306 305 313 314 311 310 314 315 316 326 330 336 339 342 341 345 343 345 346 345 344 344 344 345 344 340 338 337 337 334 336 337 336 338 335 335 334 337 337 333 333 333
326 325 317 303 303 305 306 307 312 312 313 312 312 309 321 328 327 335 337 339 341 342 344 343 346 346 345 344 344 343 343 343 342 341 338 335 334 337 337 336 338 335 335 336 335 334 335 334 333
326 320 307 303 305 306 308 311 313 310 310 311 312 307 316 328 335 336 336 338 338 343 343 343 344 345 344 344 343 342 341 341 343 342 341 337 335 334 336 335 335 335 335 333 334 334 333 333 332
317 316 304 300 304 308 309 312 312 311 312 311 309 312 318 330 332 335 337 336 339 342 343 342 338 341 342 343 343 341 341 341 341 341 341 340 337 335 334 335 334 336 332 333 329 333 332 331 332
314 312 306 306 305 307 310 313 310 310 310 310 312 312 319 326 333 335 335 336 339 341 342 342 341 339 336 338 339 339 339 338 338 338 340 339 337 336 336 337 336 334 334 331 330 333 331 330 329
315 312 307 305 304 305 311 311 314 311 310 314 318 310 312 325 334 335 335 335 338 340 340 341 340 338 336 336 333 334 336 336 334 335 335 333 333 333 333 330 333 334 334 332 332 333 331 330 329
318 306 303 306 306 308 313 310 313 316 313 313 316 319 324 330 333 332 331 332 334 336 338 339 339 338 338 337 333 329 332 332 331 329 330 328 329 327 327 328 331 333 331 331 332 333 332 331 329
306 301 304 312 311 310 311 311 312 311 312 312 315 322 328 329 329 329 328 328 330 331 333 336 338 338 337 337 334 332 332 330 330 329 328 330 329 328 329 324 327 329 329 330 330 332 331 327 323
306 300 306 311 315 315 312 309 312 309 308 312 313 318 324 327 327 328 327 328 330 331 334 335 335 338 337 336 335 335 333 331 328 329 330 329 328 325 325 323 322 323 322 324 326 327 327 324 321
302 306 306 309 314 313 312 314 310 309 309 315 316 322 323 324 326 327 327 328 329 332 333 333 336 336 336 337 335 335 334 332 330 329 330 328 327 326 324 323 324 323 323 322 322 323 324 324 322
302 305 306 308 312 311 313 311 311 311 314 316 318 319 322 322 324 326 328 329 329 330 333 334 334 335 335 335 336 334 334 333 331 331 330 329 327 325 324 323 322 323 323 323 322 322 322 322 322
304 305 306 307 308 309 307 307 309 311 316 315 316 315 316 319 322 323 325 326 328 330 331 334 335 335 335 334 335 335 335 334 333 333 330 329 328 326 325 323 322 321 321 321 320 320 321 321 321
304 299 302 303 305 305 306 301 302 306 310 312 315 315 316 317 319 319 324 325 327 329 331 332 335 335 334 334 334 335 335 335 331 333 333 332 329 327 324 323 322 321 321 320 319 319 319 318 319
298 297 290 299 303 304 303 292 300 306 304 304 306 309 314 317 318 319 321 323 326 326 328 330 333 335 334 333 334 334 336 335 335 332 331 331 331 329 326 324 323 323 321 320 318 318 317 318 318
294 285 288 292 302 301 301 294 299 302 301 301 304 305 305 307 311 317 319 319 320 320 320 325 329 330 333 335 335 335 336 334 335 334 333 331 332 330 328 325 324 324 322 319 319 319 318 317 317
287 287 288 289 295 299 297 297 300 301 300 298 300 301 303 304 306 309 311 314 315 315 316 319 322 325 328 329 332 333 334 335 334 334 333 332 332 332 329 327 325 325 323 321 320 319 319 318 318
290 287 289 291 297 294 294 295 297 301 300 299 300 300 300 302 306 307 310 310 312 314 313 312 311 317 322 324 325 327 328 330 331 332 333 332 331 331 332 330 326 325 325 322 322 321 319 318 319
292 288 286 292 295 293 292 291 294 296 297 298 299 300 301 302 302 306 308 309 311 311 311 311 310 311 318 321 324 326 327 328 329 331 332 332 331 332 332 331 329 328 326 326 325 324 322 322 321
290 288 287 286 291 292 290 288 291 294 296 298 300 300 300 301 301 302 303 305 306 307 308 309 311 311 312 316 322 323 324 324 325 326 326 329 332 332 331 331 331 330 328 326 325 325 323 321 321
286 292 292 289 285 280 290 278 285 288 292 295 297 296 297 299 301 301 302 302 305 308 310 311 312 312 313 315 319 320 319 319 321 325 328 329 332 331 331 331 330 329 328 327 326 326 325 323 320
288 292 291 290 286 284 284 279 283 288 287 290 294 297 298 299 300 301 301 306 306 309 310 312 313 314 314 313 313 317 319 320 322 322 324 327 329 329 330 330 329 329 328 327 326 325 324 324 322
293 290 289 288 286 278 284 282 282 285 287 290 294 296 298 299 300 302 303 305 306 309 310 314 313 311 311 313 314 315 316 320 320 321 323 325 326 327 325 328 328 328 327 326 325 325 324 323 323
291 287 277 275 277 275 285 282 284 289 290 291 291 294 296 299 302 300 301 301 303 304 306 308 305 303 303 303 303 306 307 307 308 312 312 313 310 307 306 308 314 322 324 324 324 324 323 323 322
289 287 279 271 274 277 286 279 284 293 295 295 295 294 297 300 301 299 299 299 299 300 301 302 300 298 299 298 299 300 301 301 301 301 301 300 300 300 302 303 305 306 307 310 318 321 321 321 320
288 285 290 282 279 276 280 284 289 293 291 292 293 295 294 298 297 296 297 296 295 295 296 297 297 297 297 296 297 297 298 298 297 297 298 297 297 298 298 299 299 301 302 303 305 308 312 318 319
290 292 283 284 269 268 277 277 281 287 289 292 292 293 295 297 296 295 294 293 293 292 292 293 293 293 294 294 295 295 294 295 294 294 293 294 294 295 295 295 296 297 297 298 298 298 301 302 304
287 287 288 286 282 276 274 277 287 288 291 292 292 294 295 295 294 293 292 291 291 290 290 289 290 290 291 292 293 292 291 291 291 290 290 290 291 291 291 291 292 292 292 293 294 295 295 294 296
291 288 288 281 279 282 281 279 291 292 293 293 293 295 296 296 294 292 290 289 288 287 287 287 287 287 289 290 288 287 287 287 286 286 286 287 287 288 288 289 289 290 290 291 290 289 290 290 290
Wind_Speed
18 13 5 2 2 3 6 3 8 6 5 3 5 6 9 11 6 6 5 9 18 15 13 11 13 12 12 11 10 9 10 9 8 7 7 9 9 9 10 10 10 10 9 11 12 11 12 11 11
11 15 4 4 3 3 4 8 7 6 8 5 3 2 2 8 8 9 7 9 16 14 12 11 11 13 12 10 8 8 10 10 10 7 5 9 8 7 9 8 9 9 10 9 8 10 11 10 10
16 11 2 3 3 7 5 7 9 9 5 2 3 2 5 5 8 9 12 11 17 11 12 12 11 12 11 10 8 6 8 12 11 9 8 7 7 8 7 7 9 7 7 9 10 9 10 8 8
6 3 4 3 2 6 10 9 10 8 5 1 4 8 7 6 2 10 9 10 15 13 13 13 12 12 11 10 8 7 7 7 11 11 7 8 7 7 7 6 6 7 7 7 8 9 8 6 6
5 4 4 4 6 5 9 9 9 6 7 6 3 5 7 4 11 11 10 9 11 14 12 10 12 11 10 11 9 7 6 1 10 10 11 8 6 6 5 4 7 6 7 5 7 8 7 6 3
4 1 4 5 3 8 7 6 6 7 8 4 3 10 5 7 8 9 9 8 11 13 11 11 9 9 9 9 9 8 6 6 5 8 9 11 10 5 5 5 5 8 4 4 3 5 4 5 4
4 4 8 8 6 7 7 5 5 8 7 5 2 6 7 7 8 9 8 8 14 12 10 10 8 7 7 7 7 8 7 6 4 7 9 8 11 7 3 2 3 7 6 5 4 4 1 1 2
3 3 7 4 2 5 7 4 6 3 6 4 6 4 7 9 9 8 7 8 12 11 8 8 10 9 7 6 7 6 6 6 5 5 7 7 7 8 6 3 3 6 6 6 6 5 4 4 3
2 3 5 7 6 6 8 6 1 4 7 2 3 9 11 12 9 8 6 7 7 7 7 9 6 8 8 8 7 6 7 7 6 5 7 6 4 6 7 7 7 5 7 8 8 7 5 4 5
2 3 7 7 2 4 9 7 10 4 6 6 8 7 11 10 8 8 7 7 8 7 5 5 8 7 7 6 8 6 6 5 5 5 6 5 6 5 6 7 9 7 5 7 9 7 6 5 4
5 4 8 3 8 9 3 4 2 3 5 7 14 13 10 8 9 9 8 7 9 10 9 7 6 6 6 5 6 4 4 4 5 7 6 6 4 4 3 4 4 4 6 3 5 5 4 6 5
6 7 10 6 6 4 5 2 6 5 2 6 9 16 9 9 9 9 9 9 9 11 12 9 11 6 6 5 4 5 4 5 4 5 7 5 3 3 4 3 5 5 4 6 5 4 7 8 7
9 8 8 2 4 4 6 5 4 6 7 7 7 4 11 9 9 8 9 8 9 9 12 13 11 11 9 7 5 4 4 4 5 5 6 5 4 4 4 4 4 5 5 5 5 5 4 5 5
4 6 13 4 6 4 3 5 5 5 7 5 10 7 6 9 10 9 8 7 7 8 9 11 13 11 10 9 10 8 5 5 6 5 6 8 5 5 5 5 4 4 4 4 4 4 4 4 4
5 5 8 8 3 5 1 8 12 9 8 8 9 10 9 9 8 8 9 8 8 6 7 9 13 13 11 13 9 7 8 7 5 6 7 9 7 6 6 5 4 5 4 6 4 4 3 3 3
3 4 3 7 10 6 6 8 8 13 11 11 10 8 9 12 10 9 9 8 9 8 10 9 8 12 13 10 8 7 7 6 6 4 4 7 8 8 6 5 5 5 5 5 4 4 4 5 5
7 4 9 8 14 6 9 5 8 9 6 10 12 10 9 8 9 10 10 8 7 7 8 9 9 9 10 12 10 10 11 8 7 4 6 6 6 7 8 5 5 6 5 5 4 4 4 4 4
7 9 7 10 7 11 7 14 12 8 4 5 8 7 7 8 9 8 7 8 9 7 6 6 6 9 9 6 6 6 6 8 7 8 8 11 8 6 7 6 6 5 4 4 4 5 4 4 5
6 3 9 8 7 3 9 15 12 10 8 9 9 8 8 8 7 5 4 5 6 6 5 5 5 7 5 4 4 4 6 4 4 5 9 12 11 10 9 7 6 5 6 6 6 5 6 5 4
14 7 8 5 4 3 6 16 12 11 11 12 10 11 12 8 8 7 9 9 8 9 8 7 7 6 5 5 4 5 4 4 4 4 5 11 12 12 10 9 8 8 6 9 8 7 5 5 5
13 11 7 5 3 2 7 14 14 14 22 18 14 11 8 10 9 8 8 8 7 8 9 8 6 6 7 7 4 3 3 2 3 3 3 4 10 10 9 7 8 8 7 7 9 7 8 7 5
13 6 9 7 1 4 10 9 6 5 13 19 18 10 10 10 8 7 7 5 3 5 6 5 4 5 6 7 5 7 5 5 4 5 7 7 8 8 7 8 6 5 4 7 7 6 7 8 8
6 5 9 6 7 6 9 6 7 9 6 4 11 9 9 10 9 8 3 8 7 8 6 4 4 6 7 5 3 3 5 3 3 3 6 6 5 5 6 6 7 7 5 5 6 6 5 5 7
4 3 1 2 1 8 12 11 10 11 8 7 9 11 10 9 7 8 8 8 8 6 5 5 7 6 9 9 7 4 4 5 3 2 3 3 3 1 4 4 5 5 5 5 5 6 7 6 6
9 8 2 1 4 9 9 13 17 10 3 2 3 7 9 9 9 9 8 7 7 5 4 5 7 8 7 8 10 9 9 9 9 7 6 7 5 5 7 9 10 6 5 4 3 3 4 4 4
18 17 6 10 6 3 13 12 7 11 13 8 8 5 7 9 8 9 9 7 7 6 7 7 7 7 7 8 9 9 10 7 7 9 7 6 5 6 8 7 7 8 8 9 9 3 4 5 5
12 20 12 6 3 3 6 6 4 7 3 4 8 7 7 8 9 10 9 7 6 6 7 7 7 7 7 7 9 10 10 11 9 10 9 7 8 7 8 9 9 8 9 9 8 5 7 6 5
13 10 11 8 4 5 7 6 9 4 7 7 8 7 7 8 9 9 8 7 6 6 7 8 8 7 7 7 7 9 9 10 9 9 9 9 8 9 9 9 9 10 10 10 8 6 7 9 7
15 14 7 6 8 5 3 8 10 12 11 12 10 10 10 12 10 9 8 7 7 6 7 7 7 7 7 7 7 9 9 9 9 9 9 8 8 9 9 8 8 9 10 10 9 10 12 12 11
23 22 22 8 13 9 12 8 5 9 7 6 7 8 11 14 12 10 10 9 7 7 6 6 6 6 6 7 8 9 9 8 9 8 8 8 8 8 8 7 7 8 8 8 12 12 11 11 11
Wind_Direction
309 313 299 267 253 186 134 66 98 116 135 57 34 9 66 44 21 93 133 111 120 125 127 137 132 127 124 123 123 120 115 110 98 95 106 108 95 84 90 99 96 97 90 85 95 83 82 82 80
303 296 280 258 232 164 96 135 113 85 89 84 134 308 114 74 75 120 101 130 117 124 144 135 135 132 131 132 137 155 152 121 109 107 107 88 81 92 99 91 94 94 75 86 94 91 87 86 80
301 294 279 301 263 20 109 101 104 99 114 74 117 4 26 86 108 143 117 137 130 134 138 127 133 134 137 139 132 106 144 122 132 133 111 109 108 103 99 109 101 107 94 93 80 86 93 85 78
315 281 252 258 301 35 101 99 113 129 112 92 327 91 85 19 92 112 146 139 129 125 122 135 139 141 141 143 140 130 120 128 142 124 126 119 115 116 102 104 98 83 84 77 79 66 66 69 80
288 266 274 243 79 90 86 115 140 148 139 161 185 90 93 71 91 119 147 143 123 120 124 136 143 145 145 149 149 146 120 68 145 143 130 124 119 131 100 106 122 118 116 110 76 75 64 53 50
292 194 290 248 153 101 114 138 151 127 115 117 167 107 77 129 121 135 143 147 112 124 137 135 145 145 150 158 155 149 138 118 151 137 146 144 136 130 153 143 160 130 115 115 154 92 69 63 56
304 307 266 309 150 126 129 150 173 139 146 117 348 94 126 153 125 142 155 146 127 120 129 141 151 152 152 158 163 157 156 154 131 149 159 157 137 155 166 152 124 143 165 178 201 137 123 105 98
288 288 278 262 263 142 115 186 46 106 73 89 5 160 166 139 138 143 156 135 124 134 141 161 157 156 165 162 173 173 171 165 137 148 148 161 156 154 164 172 174 197 192 208 214 162 208 231 214
284 274 258 239 255 134 132 165 282 44 118 109 60 77 109 127 140 145 151 143 134 129 158 162 164 172 171 166 170 180 181 181 174 157 172 167 190 176 173 194 208 186 214 220 219 189 223 248 254
246 241 260 354 176 90 152 200 150 160 160 130 105 91 117 136 153 156 172 174 138 141 209 171 160 176 172 183 152 174 182 186 187 194 171 194 216 190 171 170 166 182 205 227 234 219 217 241 256
213 243 280 28 19 14 130 186 49 188 213 180 170 156 153 161 167 173 192 183 165 165 194 198 187 172 174 187 166 181 177 187 184 199 177 196 229 176 152 144 170 185 210 212 221 220 213 225 230
259 254 279 345 46 358 298 260 182 211 121 59 50 143 153 174 180 178 186 187 186 175 184 185 201 199 186 182 191 184 195 184 184 188 188 178 204 185 176 194 191 186 188 204 222 207 207 216 227
253 268 273 241 40 293 342 292 251 237 210 117 87 95 158 182 187 195 182 190 172 173 176 183 183 198 205 205 194 193 211 193 189 186 187 178 189 204 201 204 200 185 192 192 218 211 218 223 241
41 277 264 200 196 220 253 271 277 232 274 232 149 187 219 190 187 181 188 180 180 174 181 173 178 189 197 205 215 207 205 219 195 197 186 189 188 193 200 206 213 208 195 206 208 220 222 226 220
324 285 269 254 183 273 62 259 236 246 257 244 207 191 215 216 199 194 180 187 186 186 183 184 180 179 187 209 209 221 214 216 211 203 208 190 190 203 194 198 208 204 206 207 209 222 232 236 245
192 247 255 204 210 223 159 259 222 215 228 238 250 226 212 209 211 193 203 193 185 186 188 193 185 179 183 189 203 218 234 218 219 191 198 210 189 196 205 198 201 201 196 194 192 208 223 221 222
203 218 207 267 192 189 176 272 239 243 222 234 226 234 237 241 224 193 194 201 208 202 199 188 183 185 182 189 194 202 210 210 216 200 214 247 221 196 202 203 203 200 197 195 195 213 201 217 233
187 216 248 211 192 209 211 241 285 308 312 264 279 278 254 237 231 230 196 197 194 203 197 191 185 187 186 186 196 200 193 200 207 200 197 201 231 247 207 214 206 199 192 204 199 202 226 205 218
248 332 232 260 147 162 235 261 256 245 223 217 238 264 256 243 231 230 224 230 195 175 192 211 213 210 174 175 187 198 214 202 200 200 191 192 195 221 234 210 209 201 197 205 205 202 208 238 221
254 243 275 232 54 83 281 277 271 257 249 241 222 215 227 247 261 218 198 204 198 197 203 210 227 235 209 182 191 193 193 205 192 192 204 187 192 197 230 222 212 211 217 221 219 215 222 219 193
234 238 236 268 112 240 293 273 241 238 240 241 234 234 236 223 225 240 234 222 210 201 197 201 211 225 225 215 191 196 197 166 166 203 219 208 197 195 210 232 214 216 213 216 217 219 219 228 217
236 207 257 254 253 256 147 288 287 254 230 230 234 228 237 241 247 241 254 260 109 73 54 31 3 294 248 236 197 192 190 198 206 185 200 203 209 181 195 217 221 214 205 217 216 211 219 223 226
234 254 222 233 266 317 266 287 275 211 262 202 190 203 233 230 222 228 192 94 70 45 21 336 296 280 285 291 272 210 208 195 201 211 193 171 150 172 205 214 224 230 218 213 210 221 221 219 229
192 247 112 79 247 252 221 211 236 230 208 211 199 200 203 217 212 110 97 91 76 53 32 20 68 54 32 26 11 311 237 211 197 265 151 131 123 160 9 292 213 213 211 215 216 220 221 227 229
192 172 145 207 203 234 172 208 246 280 253 195 199 224 197 192 151 125 125 103 86 75 69 66 60 46 38 48 42 38 57 59 60 53 47 50 42 35 28 19 18 12 7 359 322 241 229 235 221
198 196 165 187 197 241 194 233 243 216 245 259 164 195 197 151 138 116 105 102 92 80 64 71 71 65 53 59 62 59 60 67 68 65 70 67 64 53 36 34 26 21 24 13 354 313 271 259 254
188 215 229 324 163 100 245 274 260 126 171 157 162 168 197 125 106 110 109 109 105 86 74 77 77 69 64 64 72 66 66 69 72 66 65 62 49 45 32 30 25 22 19 17 7 9 345 325 282
185 160 205 220 207 238 244 244 235 185 190 190 206 205 188 132 123 122 115 111 99 90 77 67 65 66 60 52 66 69 68 68 68 65 58 56 48 42 37 30 23 22 18 17 11 6 346 1 357
207 205 214 181 222 190 246 247 193 217 202 198 196 196 167 138 138 137 129 121 113 102 92 77 68 65 60 55 58 63 56 56 59 59 50 44 44 38 38 34 31 26 20 13 11 8 15 4 2
203 206 203 192 208 226 258 251 137 91 34 56 206 204 146 148 146 136 134 134 136 124 105 94 80 71 65 61 62 57 55 53 54 52 47 40 41 31 30 25 32 38 30 18 31 19 7 5 1